Weather History for K96D - November, 2011

Change the Weather History Date:

Friday, November 25, 2011

  Actual Average (KGAF) Record (KGAF)
Temperature  
Mean Temperature 31 °F -  
Max Temperature 32 °F 29 °F 52 °F (1984)
Min Temperature 30 °F 16 °F -22 °F (1985)
Degree Days  
Heating Degree Days 34    
Moisture  
Dew Point 29 °F    
Average Humidity 89    
Maximum Humidity 100    
Minimum Humidity 87    
Precipitation  
Precipitation 0.00 in - - ()
Sea Level Pressure  
Sea Level Pressure 29.78 in    
Wind  
Wind Speed 10 mph (NNE)    
Max Wind Speed 14 mph    
Max Gust Speed 20 mph    
Visibility 10 miles    
Events      
Averages and records for this station are not official NWS values.
T = Trace of Precipitation, MM = Missing Value Source: NWS Daily Summary

Daily Weather History Graph

Daily Weather History Graph

Search for Another Location

Airport or City:

Trip Planner

Search our weather history database for the weather conditions in past years. The results will help you decide how hot, cold, wet, or windy it might be!

Date:

Astronomy

Nov. 25, 2011 Rise Set
Actual Time 7:55 AM CST 4:41 PM CST
Civil Twilight 7:19 AM CST 5:16 PM CST
Nautical Twilight 6:40 AM CST 5:56 PM CST
Astronomical Twilight 6:02 AM CST 6:33 PM CST
Moon 8:30 AM CST (11/25) 5:04 PM CST (11/25)
Length of Visible Light 9h 56m
Length of Day
8h 45m
New Moon, 0% of the Moon is Illuminated
Nov 25
New Moon
Dec 2
First Quarter
Dec 10
Full
Dec 17
Last Quarter
Dec 24
New

Hourly Weather History & Observations

Time (CST) Temp. Windchill Dew Point Humidity Pressure Visibility Wind Dir Wind Speed Gust Speed Precip Events Conditions
12:15 AM 32.0 °F 22.5 °F 30.2 °F 93% 29.75 in - North 12.7 mph 19.6 mph N/A   Unknown
12:55 AM 32.0 °F 23.0 °F 28.4 °F 87% 29.76 in - North 11.5 mph - N/A   Unknown
1:15 AM 32.0 °F 22.1 °F 28.4 °F 87% 29.76 in - North 13.8 mph 19.6 mph N/A   Unknown
1:35 AM 32.0 °F 22.1 °F 28.4 °F 87% 29.76 in - North 13.8 mph 18.4 mph N/A   Unknown
2:15 AM 32.0 °F 23.6 °F 28.4 °F 87% 29.77 in - North 10.4 mph 17.3 mph N/A   Unknown
2:35 AM 32.0 °F 22.5 °F 28.4 °F 87% 29.78 in - North 12.7 mph - N/A   Unknown
2:55 AM 32.0 °F 22.5 °F 28.4 °F 87% 29.78 in - North 12.7 mph - N/A   Unknown
3:15 AM 32.0 °F 23.6 °F 28.4 °F 87% 29.79 in - North 10.4 mph - N/A   Unknown
3:35 AM 32.0 °F 23.6 °F 28.4 °F 87% 29.80 in 10.0 mi North 10.4 mph - N/A   Unknown
3:55 AM 32.0 °F 22.5 °F 28.4 °F 87% 29.78 in - North 12.7 mph - N/A   Unknown
4:35 AM 32.0 °F 23.0 °F 28.4 °F 87% 29.78 in - North 11.5 mph - N/A   Unknown
4:55 AM 32.0 °F 23.6 °F 28.4 °F 87% 29.78 in - North 10.4 mph - N/A   Unknown
5:15 AM 32.0 °F 24.2 °F 28.4 °F 87% 29.79 in - NNE 9.2 mph - N/A   Unknown
5:35 AM 32.0 °F 26.4 °F 28.4 °F 87% 29.79 in - NNE 5.8 mph - N/A   Unknown
5:55 AM 32.0 °F 24.8 °F 28.4 °F 87% 29.79 in - NE 8.1 mph - N/A   Unknown
6:15 AM 32.0 °F 24.2 °F 28.4 °F 87% 29.80 in - NE 9.2 mph - N/A   Unknown
6:35 AM 32.0 °F 24.2 °F 28.4 °F 87% 29.80 in - NNE 9.2 mph - N/A   Unknown
6:55 AM 32.0 °F 24.8 °F 30.2 °F 93% 29.80 in - NNE 8.1 mph - N/A   Unknown
7:15 AM 30.2 °F 23.4 °F 30.2 °F 100% 29.80 in - NE 6.9 mph - N/A   Unknown
8:15 AM 30.2 °F 23.4 °F 30.2 °F 100% 29.80 in - NE 6.9 mph - N/A   Unknown
8:35 AM 30.2 °F 21.3 °F 28.4 °F 93% 29.81 in - NE 10.4 mph - N/A   Unknown
8:55 AM 30.2 °F 22.6 °F 28.4 °F 93% 29.80 in - NE 8.1 mph - N/A   Unknown
9:15 AM 30.2 °F 21.9 °F 28.4 °F 93% 29.81 in - NE 9.2 mph - N/A   Unknown
9:35 AM 30.2 °F 23.4 °F 28.4 °F 93% 29.81 in - NE 6.9 mph - N/A   Unknown
10:15 AM 30.2 °F 23.4 °F 28.4 °F 93% 29.80 in - ENE 6.9 mph - N/A   Unknown
10:35 AM 30.2 °F 23.4 °F 28.4 °F 93% 29.81 in - NE 6.9 mph - N/A   Unknown
10:55 AM 30.2 °F 23.4 °F 28.4 °F 93% 29.81 in - NNE 6.9 mph - N/A   Unknown
11:15 AM 32.0 °F 25.6 °F 28.4 °F 87% 29.81 in - NE 6.9 mph - N/A   Unknown
11:35 AM 32.0 °F 25.6 °F 28.4 °F 87% 29.80 in - NE 6.9 mph - N/A   Unknown
11:55 AM 32.0 °F 24.2 °F 28.4 °F 87% 29.79 in - NNE 9.2 mph - N/A   Unknown
12:15 PM 32.0 °F 24.8 °F 28.4 °F 87% 29.79 in - NE 8.1 mph - N/A   Unknown
12:35 PM 32.0 °F 24.8 °F 28.4 °F 87% 29.78 in - NE 8.1 mph - N/A   Unknown
12:55 PM 32.0 °F 25.6 °F 28.4 °F 87% 29.77 in - ENE 6.9 mph - N/A   Unknown
1:15 PM 32.0 °F 24.8 °F 28.4 °F 87% 29.76 in - East 8.1 mph - N/A   Unknown
1:35 PM 32.0 °F 24.2 °F 28.4 °F 87% 29.76 in - NE 9.2 mph - N/A   Unknown
1:55 PM 32.0 °F 24.8 °F 28.4 °F 87% 29.75 in - NE 8.1 mph - N/A   Unknown
2:15 PM 32.0 °F 24.2 °F 28.4 °F 87% 29.75 in - NE 9.2 mph - N/A   Unknown
2:35 PM 32.0 °F 23.0 °F 28.4 °F 87% 29.73 in - NE 11.5 mph - N/A   Unknown
2:55 PM 32.0 °F 24.8 °F 28.4 °F 87% 29.73 in - ENE 8.1 mph - N/A   Unknown
3:15 PM 32.0 °F 24.2 °F 28.4 °F 87% 29.74 in - NE 9.2 mph - N/A   Unknown
3:35 PM 32.0 °F 25.6 °F 28.4 °F 87% 29.75 in - ENE 6.9 mph - N/A   Unknown
3:55 PM 32.0 °F 24.8 °F 28.4 °F 87% 29.76 in - ENE 8.1 mph - N/A   Unknown
4:15 PM 32.0 °F 25.6 °F 28.4 °F 87% 29.76 in - ENE 6.9 mph - N/A   Unknown
4:35 PM 32.0 °F 25.6 °F 28.4 °F 87% 29.77 in - NNE 6.9 mph - N/A   Unknown
4:55 PM 32.0 °F 26.4 °F 28.4 °F 87% 29.77 in - NNE 5.8 mph - N/A   Unknown
5:15 PM 32.0 °F 25.6 °F 28.4 °F 87% 29.77 in - NNE 6.9 mph - N/A   Unknown
5:35 PM 32.0 °F 24.2 °F 28.4 °F 87% 29.78 in - North 9.2 mph - N/A   Unknown
5:55 PM 32.0 °F 24.2 °F 28.4 °F 87% 29.78 in - North 9.2 mph - N/A   Unknown
6:15 PM 32.0 °F 24.2 °F 30.2 °F 93% 29.80 in - North 9.2 mph - N/A   Unknown
6:35 PM 32.0 °F 23.6 °F 30.2 °F 93% 29.80 in - North 10.4 mph - N/A   Unknown
6:55 PM 32.0 °F 23.0 °F 30.2 °F 93% 29.81 in 10.0 mi North 11.5 mph - N/A   Unknown
7:15 PM 32.0 °F 23.6 °F 30.2 °F 93% 29.82 in - North 10.4 mph - N/A   Unknown
7:35 PM 32.0 °F 23.6 °F 30.2 °F 93% 29.83 in - North 10.4 mph - N/A   Unknown
7:55 PM 32.0 °F 22.5 °F 30.2 °F 93% 29.83 in - North 12.7 mph - N/A   Unknown
8:15 PM 32.0 °F 23.0 °F 30.2 °F 93% 29.83 in - North 11.5 mph - N/A   Unknown
8:35 PM 32.0 °F 24.2 °F 30.2 °F 93% 29.84 in - North 9.2 mph - N/A   Unknown
8:55 PM 30.2 °F 23.4 °F 28.4 °F 93% 29.84 in - North 6.9 mph - N/A   Unknown
9:15 PM 30.2 °F 22.6 °F 30.2 °F 100% 29.84 in - North 8.1 mph - N/A   Unknown
9:35 PM 30.2 °F 22.6 °F 30.2 °F 100% 29.84 in - North 8.1 mph - N/A   Unknown
10:15 PM 28.4 °F 22.2 °F 28.4 °F 100% 29.84 in - North 5.8 mph - N/A   Unknown
10:35 PM 28.4 °F 21.2 °F 28.4 °F 100% 29.85 in - North 6.9 mph - N/A   Unknown
10:55 PM 30.2 °F 23.4 °F 30.2 °F 100% 29.85 in - North 6.9 mph - N/A   Unknown
11:15 PM 30.2 °F 23.4 °F 30.2 °F 100% 29.86 in 10.0 mi North 6.9 mph - N/A   Unknown
11:35 PM 30.2 °F 23.4 °F 30.2 °F 100% 29.87 in - NNW 6.9 mph - N/A   Unknown
11:55 PM 30.2 °F 24.3 °F 30.2 °F 100% 29.87 in - NW 5.8 mph - N/A   Unknown